Temp
-11 -11 -11 -11 -11 -11 -11 -11 -11 -11 -12 -12 -12 -12 -12 -12 -11 -11 -11 -12 -12 -12 -12 -11 -10 -10 -10 -11 -12 -12 -13 -13 -13 -13 -12 -12 -12 -13
-12 -12 -12 -12 -12 -12 -12 -12 -11 -11 -11 -12 -12 -12 -12 -12 -12 -12 -12 -12 -11 -11 -12 -12 -13 -14 -15 -16 -18 -19 -18 -17 -16 -14 -13 -13 -13 -12
-12 -12 -12 -12 -12 -12 -12 -12 -12 -12 -11 -12 -12 -12 -12 -12 -11 -11 -11 -11 -11 -12 -13 -16 -18 -19 -19 -21 -21 -20 -20 -19 -18 -17 -15 -14 -14 -13
-12 -12 -12 -12 -12 -12 -12 -12 -12 -12 -12 -12 -12 -12 -12 -12 -12 -12 -11 -11 -12 -14 -17 -18 -18 -19 -20 -20 -20 -20 -20 -20 -19 -18 -16 -15 -14 -14
-13 -13 -13 -12 -12 -12 -12 -12 -12 -12 -12 -12 -12 -12 -12 -12 -12 -12 -12 -12 -14 -17 -18 -18 -18 -19 -20 -20 -21 -20 -21 -21 -20 -19 -17 -15 -14 -14
-13 -13 -13 -13 -13 -13 -13 -13 -13 -12 -12 -12 -12 -12 -12 -12 -12 -12 -13 -15 -17 -19 -19 -18 -18 -19 -19 -20 -20 -21 -21 -21 -21 -19 -18 -16 -14 -14
-13 -13 -13 -13 -13 -13 -13 -13 -13 -12 -13 -12 -12 -12 -13 -13 -13 -13 -15 -17 -19 -19 -19 -19 -19 -19 -20 -20 -20 -20 -21 -21 -20 -20 -17 -16 -14 -14
-14 -13 -13 -13 -13 -13 -13 -13 -13 -13 -13 -13 -12 -12 -13 -13 -13 -15 -17 -19 -19 -20 -20 -20 -20 -20 -20 -20 -20 -20 -21 -21 -21 -18 -16 -14 -14 -14
-14 -14 -14 -13 -14 -14 -14 -13 -13 -13 -13 -12 -12 -13 -13 -13 -14 -16 -19 -19 -20 -20 -21 -21 -21 -22 -21 -20 -20 -20 -20 -20 -19 -16 -16 -14 -12 -14
-14 -14 -14 -14 -14 -14 -14 -14 -13 -13 -13 -13 -12 -13 -13 -13 -15 -18 -19 -20 -21 -22 -21 -21 -22 -22 -22 -21 -21 -20 -20 -20 -16 -15 -14 -14 -13 -14
-15 -14 -14 -14 -14 -14 -14 -14 -14 -13 -13 -13 -12 -13 -13 -14 -17 -18 -19 -19 -20 -21 -22 -22 -22 -22 -21 -20 -19 -19 -20 -17 -15 -14 -14 -14 -14 -13
-15 -15 -15 -14 -14 -14 -14 -14 -14 -14 -13 -13 -13 -13 -13 -17 -18 -19 -18 -20 -19 -20 -22 -21 -21 -20 -19 -19 -17 -16 -15 -15 -15 -15 -14 -14 -13 -12
-15 -15 -15 -15 -14 -14 -14 -14 -14 -14 -13 -13 -13 -13 -15 -17 -18 -17 -19 -19 -19 -20 -19 -21 -20 -19 -18 -14 -13 -13 -14 -14 -14 -14 -14 -14 -13 -13
-15 -15 -15 -15 -15 -14 -14 -14 -14 -13 -13 -13 -13 -13 -15 -18 -18 -18 -17 -18 -17 -17 -17 -19 -17 -15 -12 -12 -13 -14 -14 -14 -14 -14 -14 -13 -12 -13
-15 -15 -15 -15 -15 -15 -14 -14 -14 -13 -13 -13 -13 -14 -16 -17 -17 -18 -16 -16 -16 -16 -16 -15 -13 -12 -13 -13 -13 -13 -13 -14 -14 -14 -13 -12 -13 -13
-15 -15 -15 -15 -15 -15 -14 -14 -14 -13 -13 -13 -13 -14 -16 -16 -17 -18 -16 -15 -15 -14 -13 -14 -13 -13 -13 -13 -13 -13 -13 -13 -14 -14 -13 -13 -13 -12
-15 -15 -15 -14 -15 -15 -14 -14 -14 -13 -13 -13 -13 -14 -15 -16 -17 -17 -16 -15 -15 -15 -14 -13 -12 -13 -14 -14 -13 -13 -13 -13 -13 -13 -13 -13 -13 -12
-15 -15 -15 -15 -15 -15 -14 -14 -14 -14 -13 -13 -13 -14 -15 -16 -17 -16 -16 -15 -15 -14 -14 -14 -13 -13 -14 -14 -15 -14 -13 -14 -13 -13 -13 -13 -13 -12
-15 -15 -15 -15 -15 -15 -15 -14 -14 -14 -13 -13 -13 -14 -15 -16 -16 -16 -16 -15 -15 -15 -14 -14 -14 -14 -14 -15 -16 -16 -14 -14 -13 -13 -13 -13 -13 -12
-16 -15 -15 -15 -15 -15 -15 -14 -14 -14 -13 -13 -13 -14 -15 -15 -15 -15 -15 -15 -15 -15 -15 -14 -14 -13 -14 -13 -14 -14 -15 -14 -14 -14 -13 -13 -13 -12
-15 -15 -15 -15 -15 -15 -15 -14 -14 -14 -13 -13 -13 -14 -14 -15 -14 -15 -15 -15 -15 -15 -14 -14 -14 -14 -14 -14 -15 -14 -15 -14 -14 -14 -14 -14 -14 -13
-15 -15 -15 -15 -15 -15 -15 -14 -14 -14 -13 -13 -13 -13 -14 -15 -14 -15 -15 -16 -14 -14 -14 -14 -14 -14 -14 -14 -14 -14 -14 -14 -14 -14 -13 -14 -14 -13
-15 -15 -15 -15 -15 -15 -15 -14 -14 -14 -13 -14 -13 -13 -14 -15 -14 -15 -15 -14 -15 -15 -14 -14 -14 -14 -14 -14 -14 -14 -15 -14 -14 -14 -14 -14 -13 -12
Height
5750 5751 5753 5754 5754 5754 5752 5751 5750 5750 5748 5743 5740 5734 5731 5727 5724 5720 5714 5708 5702 5695 5689 5683 5676 5670 5662 5655 5650 5652 5657 5671 5682 5697 5715 5728 5737 5748
5739 5741 5742 5742 5743 5743 5742 5740 5738 5737 5736 5732 5729 5724 5720 5716 5711 5705 5699 5692 5684 5674 5663 5652 5640 5631 5623 5615 5610 5616 5627 5639 5653 5671 5690 5707 5721 5735
5728 5730 5732 5731 5732 5732 5731 5730 5728 5725 5723 5720 5715 5710 5705 5699 5694 5686 5678 5669 5659 5646 5635 5625 5617 5608 5601 5596 5597 5602 5609 5619 5634 5649 5669 5691 5711 5721
5717 5720 5721 5721 5722 5721 5720 5719 5717 5713 5709 5707 5702 5696 5689 5681 5674 5667 5656 5645 5634 5622 5613 5609 5604 5600 5594 5589 5589 5591 5596 5606 5621 5636 5658 5675 5694 5715
5707 5709 5710 5711 5711 5710 5709 5707 5705 5702 5697 5692 5689 5682 5673 5664 5657 5646 5635 5624 5611 5602 5599 5595 5592 5590 5587 5584 5585 5589 5591 5601 5615 5629 5646 5665 5685 5701
5697 5700 5701 5702 5700 5700 5698 5696 5694 5691 5686 5681 5676 5668 5658 5647 5636 5626 5614 5599 5590 5584 5582 5580 5578 5578 5578 5579 5582 5585 5591 5601 5613 5624 5638 5658 5680 5699
5688 5690 5691 5691 5691 5689 5688 5686 5683 5679 5675 5670 5663 5654 5642 5630 5617 5603 5591 5580 5574 5566 5563 5561 5560 5562 5565 5570 5576 5580 5587 5598 5607 5618 5636 5656 5677 5696
5677 5680 5681 5681 5681 5680 5678 5676 5672 5668 5663 5658 5650 5641 5629 5615 5600 5585 5571 5562 5560 5546 5537 5540 5539 5543 5547 5556 5566 5574 5584 5592 5601 5614 5635 5655 5676 5694
5667 5669 5671 5672 5672 5672 5669 5667 5662 5658 5654 5646 5639 5625 5614 5600 5585 5570 5555 5544 5534 5527 5515 5516 5515 5520 5521 5535 5551 5565 5578 5586 5596 5614 5634 5656 5675 5694
5658 5660 5661 5662 5663 5663 5661 5657 5654 5649 5644 5636 5626 5614 5601 5585 5567 5555 5542 5527 5515 5502 5493 5492 5493 5499 5505 5517 5534 5552 5571 5583 5597 5618 5636 5658 5676 5693
5648 5650 5651 5653 5654 5654 5652 5648 5645 5641 5633 5625 5615 5603 5589 5570 5554 5544 5529 5516 5507 5496 5484 5478 5479 5483 5491 5502 5519 5543 5564 5582 5599 5620 5640 5660 5676 5691
5639 5641 5643 5645 5645 5645 5644 5641 5638 5633 5626 5615 5606 5592 5576 5562 5550 5536 5524 5511 5509 5499 5484 5477 5476 5480 5489 5499 5520 5543 5565 5583 5604 5626 5644 5663 5680 5693
5631 5633 5636 5637 5636 5637 5635 5634 5631 5625 5618 5610 5601 5586 5570 5559 5544 5535 5525 5519 5511 5503 5499 5490 5488 5491 5499 5518 5539 5558 5581 5598 5614 5631 5651 5669 5682 5693
5622 5626 5628 5629 5630 5628 5628 5627 5623 5619 5613 5605 5595 5581 5568 5556 5548 5541 5536 5528 5524 5520 5509 5512 5511 5516 5527 5546 5563 5575 5592 5610 5627 5642 5657 5670 5682 5694
5614 5616 5619 5622 5623 5621 5621 5620 5617 5613 5608 5601 5591 5578 5566 5558 5554 5549 5544 5537 5533 5532 5529 5529 5537 5544 5558 5572 5583 5596 5609 5620 5637 5654 5666 5679 5690 5699
5605 5607 5611 5614 5615 5615 5614 5614 5612 5608 5604 5597 5588 5577 5568 5562 5560 5556 5553 5549 5550 5551 5552 5555 5563 5570 5581 5590 5601 5610 5625 5638 5648 5661 5673 5683 5691 5699
5598 5601 5604 5606 5608 5607 5607 5608 5606 5604 5600 5595 5586 5577 5571 5566 5566 5564 5562 5563 5564 5567 5572 5572 5577 5585 5596 5609 5617 5628 5640 5650 5658 5670 5679 5687 5694 5702
5591 5594 5596 5599 5600 5600 5602 5602 5602 5600 5597 5593 5584 5576 5573 5569 5572 5572 5566 5570 5573 5577 5582 5588 5595 5601 5608 5614 5626 5638 5645 5657 5666 5673 5681 5690 5698 5706
5583 5586 5589 5592 5594 5595 5596 5597 5597 5596 5594 5590 5583 5577 5572 5571 5575 5577 5576 5576 5578 5586 5591 5597 5606 5611 5617 5624 5631 5642 5656 5663 5672 5680 5686 5692 5698 5707
5576 5580 5583 5585 5587 5589 5591 5592 5593 5592 5591 5588 5582 5577 5575 5575 5577 5580 5582 5585 5588 5591 5598 5605 5611 5617 5625 5634 5640 5646 5654 5667 5674 5683 5691 5697 5703 5709
5570 5574 5576 5578 5581 5583 5585 5587 5588 5588 5588 5585 5581 5575 5574 5577 5579 5582 5587 5590 5594 5597 5603 5610 5615 5620 5627 5636 5645 5653 5658 5666 5676 5683 5691 5697 5703 5710
5563 5566 5569 5572 5575 5577 5579 5581 5583 5583 5584 5582 5579 5574 5574 5575 5579 5583 5587 5592 5596 5600 5605 5611 5619 5626 5634 5638 5647 5657 5663 5670 5674 5680 5688 5695 5702 5708
5555 5559 5562 5565 5568 5572 5574 5576 5578 5578 5578 5578 5577 5573 5573 5574 5577 5583 5588 5592 5599 5603 5608 5614 5621 5628 5635 5642 5649 5658 5665 5674 5681 5687 5692 5697 5702 5709
Wind_Speed
45 44 43 42 42 40 39 40 41 41 42 46 47 50 51 52 52 53 57 60 63 68 73 78 86 91 95 95 93 91 92 85 78 73 64 60 61 65
45 44 42 42 41 40 40 41 42 43 42 46 48 50 51 52 52 55 59 62 68 75 82 85 82 80 72 70 65 55 54 60 64 58 59 60 59 57
44 43 42 42 41 40 41 41 43 45 45 47 50 51 52 52 53 58 62 69 74 82 75 63 49 44 39 33 32 34 40 45 52 63 63 60 62 39
43 42 41 41 40 41 41 41 43 44 46 49 50 51 52 54 58 63 69 74 80 70 53 40 39 37 32 25 24 28 37 48 51 55 58 64 69 62
42 42 40 39 40 40 40 41 43 44 48 50 49 50 53 58 62 68 73 79 68 54 41 39 38 35 28 25 25 24 32 39 44 51 58 68 72 46
41 39 38 38 39 39 40 41 43 45 49 49 49 50 55 61 68 73 78 68 56 41 41 40 42 37 28 24 24 30 32 36 38 47 62 68 75 58
39 38 37 37 38 38 39 41 43 46 47 47 47 52 57 64 72 78 71 56 43 46 47 43 40 37 35 31 30 25 32 39 38 40 59 71 53 61
37 36 37 37 38 37 39 41 44 45 46 46 49 53 60 67 75 71 59 49 46 53 50 37 36 33 36 39 37 34 28 36 42 51 65 64 55 56
34 36 35 35 35 36 39 41 42 43 43 45 48 55 62 70 72 59 50 53 49 41 46 45 48 40 36 48 39 41 36 33 53 65 76 60 47 53
33 33 33 34 34 36 38 41 40 41 43 46 49 58 66 71 64 52 54 49 37 38 30 36 30 30 33 41 47 49 42 43 60 75 68 66 59 55
30 30 31 31 33 35 38 38 39 40 42 44 51 60 68 67 56 53 32 19 29 35 26 19 25 31 29 38 47 52 50 63 77 69 63 61 59 55
27 28 29 31 33 34 35 35 36 38 39 44 53 62 68 53 52 30 20 15 30 31 19 5 11 26 43 52 51 65 83 84 77 66 60 59 56 52
26 26 28 30 32 32 32 33 33 34 37 42 52 61 59 51 29 6 24 24 11 15 30 32 36 46 53 60 73 78 84 77 67 67 62 58 54 49
26 26 29 29 29 30 31 30 30 31 33 41 49 59 50 34 10 8 28 12 18 31 36 44 52 56 67 77 77 77 73 69 62 64 62 59 54 50
26 28 28 27 26 28 28 24 25 27 32 41 47 55 45 21 3 10 27 23 25 34 45 54 60 72 75 78 76 68 66 64 63 61 58 52 46 46
28 28 28 26 24 24 22 21 22 26 31 39 45 49 39 15 3 11 15 38 36 44 45 51 57 68 70 69 66 62 58 58 60 55 51 47 48 45
28 29 28 26 22 21 18 18 19 24 29 35 43 41 32 5 13 21 26 29 34 32 44 49 58 62 60 58 53 55 54 54 54 49 45 44 46 42
29 28 26 23 20 19 16 16 16 21 26 31 39 33 25 2 23 27 15 23 19 36 43 45 51 60 61 56 54 53 53 50 48 45 43 43 42 39
28 25 24 21 20 18 15 13 14 19 24 28 35 27 18 4 27 26 18 27 25 39 47 43 47 52 50 50 56 50 47 48 43 39 38 42 42 39
24 22 23 20 19 15 14 11 12 17 22 25 30 21 11 6 29 36 33 31 24 38 44 48 49 55 50 53 52 55 51 43 41 37 33 35 37 36
23 23 23 22 19 15 13 11 13 16 19 23 27 18 9 6 27 42 39 32 32 34 45 54 46 50 48 51 50 49 50 47 41 37 34 33 35 33
22 20 20 24 18 16 13 12 14 15 18 20 24 18 9 10 24 48 45 36 29 32 40 46 49 52 50 49 45 43 45 45 45 42 39 35 33 35
21 20 20 20 17 17 13 13 13 13 16 18 22 14 9 11 21 46 49 41 21 24 37 47 48 46 43 46 47 48 43 40 37 34 34 34 33 33
Wind_Direction
259 261 266 271 275 277 278 280 281 281 284 287 288 288 290 291 292 291 289 288 289 288 287 285 285 283 282 279 273 264 258 255 252 248 245 239 232 232
256 260 266 271 274 275 277 280 282 283 284 286 288 289 290 290 291 288 289 289 289 291 292 294 295 294 288 274 266 253 242 235 226 225 225 219 219 215
254 259 267 271 274 275 278 280 282 284 287 289 291 293 294 294 291 292 294 294 296 299 300 301 299 303 292 270 256 243 232 228 221 217 213 206 196 202
255 261 266 269 273 276 279 281 283 285 290 292 295 296 297 294 294 299 298 299 303 304 297 295 297 300 300 272 254 239 226 219 211 209 202 198 201 204
256 261 267 270 275 277 280 283 285 289 291 294 298 299 297 296 301 301 302 304 306 300 289 286 292 292 290 269 247 233 219 210 205 205 196 193 196 192
256 261 267 271 274 277 280 283 286 290 294 298 301 299 299 303 305 304 306 309 305 294 286 288 285 276 272 254 237 232 215 203 198 201 192 192 196 195
256 264 269 271 274 278 281 284 289 292 298 301 302 301 306 308 308 309 312 308 300 293 286 283 272 258 257 236 230 226 217 203 198 203 188 183 175 181
257 264 267 271 275 279 283 287 290 298 302 305 302 309 310 310 312 315 312 305 301 292 286 281 274 247 247 226 219 217 210 202 207 192 179 172 164 184
257 264 269 273 276 280 284 288 294 300 304 303 308 313 312 315 317 317 311 309 306 294 280 270 274 268 248 217 211 210 205 197 193 177 173 163 169 183
257 265 270 273 276 279 284 289 298 303 305 306 315 316 319 320 323 319 319 320 323 310 280 283 255 239 233 205 203 200 195 187 179 170 162 169 176 170
261 266 268 272 275 280 286 294 301 305 307 313 318 321 323 327 326 327 344 5 331 335 322 264 248 235 217 196 182 187 188 173 170 156 161 169 167 166
259 263 267 271 276 282 288 297 302 307 311 317 323 325 328 331 329 342 9 335 9 3 344 239 183 160 151 146 163 169 163 164 165 156 159 163 161 163
261 264 267 272 277 283 290 298 304 308 315 321 326 329 332 334 345 51 16 29 41 101 92 111 129 133 132 145 152 151 151 152 152 156 157 157 161 163
262 264 265 271 276 284 292 298 306 310 320 325 330 333 336 345 47 99 60 102 95 97 103 111 106 119 139 148 145 145 148 152 156 154 157 159 163 162
260 260 264 270 275 284 291 300 305 315 324 332 332 335 344 2 144 107 87 106 99 117 118 117 128 134 140 147 147 147 152 153 153 157 155 158 158 155
255 258 262 265 268 284 291 299 308 318 326 333 333 337 351 358 183 115 59 120 114 116 128 135 137 141 146 147 151 153 157 157 153 152 156 157 156 155
253 257 260 260 268 283 291 297 313 321 332 333 334 340 353 357 184 155 104 113 122 138 130 131 147 149 152 156 153 153 156 153 153 153 154 156 157 156
256 259 251 258 264 284 289 295 315 326 334 334 338 341 354 280 190 158 93 107 107 147 145 141 146 154 152 161 150 152 152 154 154 154 156 158 158 157
258 246 251 256 273 280 279 293 309 325 331 335 340 342 345 328 192 180 161 148 120 146 152 146 152 151 152 147 151 152 156 154 155 157 158 160 161 161
249 250 254 258 278 272 267 288 300 320 328 338 341 339 337 285 208 185 172 164 136 129 160 157 151 159 150 155 161 157 155 158 158 160 161 163 163 162
255 257 250 256 268 258 257 273 284 311 322 338 341 335 315 251 217 206 188 176 156 149 159 167 159 158 153 162 162 162 159 161 163 162 164 165 168 170
250 251 249 261 252 244 246 260 279 302 312 337 344 332 305 244 214 209 201 187 158 152 162 172 173 163 164 164 162 167 170 171 170 167 168 168 170 174
250 250 248 244 249 239 238 257 282 300 307 330 341 331 305 241 215 216 200 186 156 177 170 171 175 176 171 171 169 174 174 177 179 174 173 173 175 175